Flag for Paraguay Weather past 2 weeks in Ciudad del Este, Paraguay

Now
68 °F

Clear.


Feels Like: 68 °F
Forecast: 63 / 82 °F
Wind: 6 mph from Southeast

Location: Foz Do Iguacu Aeroporto


UV Index: 3 (Moderate)

Visibility: 10 mi


Pressure: 29.98 "Hg

Humidity: 94%

Dew point: 66 °F

Location of Ciudad del EsteLocation

Historic Weather in Ciudad del Este

°F

Ciudad del Este temperature yesterday

Maximum temperature yesterday: 68 °F (at 10:00 AM)
Minimum temperature yesterday: 48 °F (at 7:00 AM)
Average temperature yesterday: 66 °F

Past Weeks' High & Low Weather Summary

 TemperatureHumidityPressure
High91 °F (Apr 6, 1:00 PM)100% (Apr 9, 11:00 AM)30.18 "Hg (Apr 9, 11:00 AM)
Low34 °F (Apr 9, 3:00 PM)28% (Apr 9, 6:00 PM)29.71 "Hg (Apr 11, 5:00 PM)
Average71 °F85%29.95 "Hg
* Reported Apr 5 8:00 PM — Apr 20 8:00 PM, Ciudad del Este, Weather by CustomWeather, © 2014

Note: Actual official high and low records may vary slightly from our data, if they occured in-between our weather recording intervals... More about our weather records

Advertising

Historic Weather Conditions — Data for Previous 24 hours

 ConditionsComfort  
Time TempWeatherWind HumidityBarometerVisibility
8:00 PM
Apr 20
70 °FClear.6 mph94%29.98 "Hg10 mi
7:00 PM70 °FPassing clouds.5 mph94%29.98 "HgN/A
6:00 PM72 °FPassing clouds.3 mph88%29.95 "HgN/A
5:00 PM73 °FPassing clouds.3 mph83%29.98 "HgN/A
4:00 PM75 °FScattered clouds.2 mph83%29.98 "HgN/A
3:00 PM79 °FScattered clouds.3 mph74%29.98 "HgN/A
2:00 PM77 °FPartly sunny.5 mph74%30.01 "HgN/A
1:00 PM75 °FPartly sunny.2 mph83%30.01 "HgN/A
12:00 PM73 °FPartly sunny.5 mph83%30.04 "HgN/A
11:00 AM72 °FPartly sunny.2 mph88%30.04 "HgN/A
10:00 AM70 °FPartly sunny.5 mph94%30.07 "HgN/A
9:00 AM68 °FPartly sunny.2 mph94%30.07 "HgN/A
8:00 AM66 °FFog.No wind94%30.07 "Hg0 mi
7:00 AM66 °FFog.1 mph94%30.07 "Hg0 mi
6:00 AM64 °FFog.2 mph100%30.04 "Hg0 mi
5:00 AM64 °FFog.2 mph100%30.01 "Hg1 mi
4:00 AM66 °FFog.3 mph94%30.01 "Hg3 mi
3:00 AM66 °FFog.5 mph94%30.01 "Hg3 mi
2:00 AM64 °FFog.2 mph94%30.01 "Hg3 mi
1:00 AM63 °FFog.2 mph100%30.01 "Hg1 mi
12:00 AM63 °FFog.2 mph100%30.01 "Hg1 mi
11:00 PM
Apr 19
64 °FFog.2 mph94%30.01 "Hg1 mi
10:00 PM64 °FFog.2 mph100%30.01 "Hg3 mi
9:00 PM66 °FClear.5 mph100%29.98 "Hg5 mi
Weather by CustomWeather, © 2014

See weather overview